[[{"header":{"parameterUnit":"m.s-1","parameterCategory":1,"la1":30.2991,"la2":30.254,"lo1":-89.0895,"lo2":-89.0444,"dy":0.0017,"dx":0.0017,"nx":28,"ny":28,"refTime":"2025-04-24T09:00:00:Z","depth":0,"parameterNumber":2,"parameterNumberName":"U-component_of_WINDS"},"data":[0,0,0,0,0,0,0,0,0,0,0,0,0,0,0,0,0,0,0,0,0,0,0,0,0,0,0,0,0,0,0,0,0,0,0,0,0,0,0,0,0,0,0,0,0,0,0,0,0,0,0,0,0,0,0,0,0,0,-1.9548,-1.9548,0,-1.9509,-1.9509,-1.9508,-1.9477,-1.9477,-1.9477,-1.9476,-1.9434,-1.9433,-1.9433,0,0,0,0,0,0,0,0,0,0,0,0,0,-1.9594,-1.9593,-1.9548,-1.9548,-1.9547,-1.9509,-1.9509,-1.9508,-1.9477,-1.9477,-1.9476,-1.9476,-1.9434,-1.9434,-1.9433,0,0,0,0,0,0,0,0,0,0,0,0,0,-1.9566,-1.9593,-1.9548,-1.9527,-1.9525,-1.9509,-1.9509,-1.9508,-1.9477,-1.9477,-1.9476,-1.9476,-1.9435,-1.9434,-1.9432,-1.9434,0,0,-1.9429,-1.9428,0,0,0,0,0,0,0,0,-1.9568,-1.9565,-1.9531,-1.9529,-1.9526,-1.9498,-1.9509,-1.9483,-1.9477,-1.9495,-1.9476,-1.9476,-1.9456,-1.9453,-1.9446,-1.9432,-1.943,-1.9428,-1.9428,-1.9427,-1.9427,0,0,0,0,0,0,0,-1.957,-1.9566,-1.9533,-1.953,-1.9527,-1.9519,-1.9515,-1.9504,-1.9478,-1.9494,-1.9491,-1.9487,-1.9454,-1.9448,-1.9445,-1.943,-1.9428,-1.9427,-1.9427,-1.9426,-1.9414,-1.9415,0,0,0,0,0,0,-1.9575,-1.9568,-1.9534,-1.9532,-1.9546,-1.9519,-1.9514,-1.9507,-1.9478,-1.9474,-1.9488,-1.9486,-1.945,-1.9446,-1.9443,-1.9443,-1.9427,-1.9426,-1.9425,-1.9414,-1.9414,-1.9415,0,0,0,0,0,0,-1.9576,-1.9573,-1.9536,-1.9549,-1.9544,-1.9518,-1.9511,-1.9507,-1.95,-1.9474,-1.9469,-1.9486,-1.9449,-1.9445,-1.9437,-1.9441,-1.9425,-1.9424,-1.9413,-1.9414,-1.9414,-1.9442,0,0,0,0,0,0,-1.9578,-1.9573,-1.9574,-1.9549,-1.9543,-1.953,-1.9512,-1.9506,-1.9498,-1.9496,-1.9471,-1.9466,-1.9449,-1.9439,-1.9435,-1.9439,-1.9423,-1.9413,-1.9413,-1.9414,-1.9441,-1.9444,-1.9446,0,0,0,0,0,-1.958,-1.9583,-1.9574,-1.957,-1.9544,-1.953,-1.9527,-1.9507,-1.9499,-1.9499,-1.9482,-1.9467,-1.9441,-1.9438,-1.9434,-1.9437,-1.9412,-1.9413,-1.9414,-1.9439,-1.9443,-1.9446,0,0,0,0,0,0,-1.9608,-1.9579,-1.9569,-1.9565,-1.9551,-1.9525,-1.9525,-1.9512,-1.9499,-1.9496,-1.9472,-1.9467,-1.946,-1.9448,-1.9445,-1.9437,-1.9425,-1.9425,-1.9445,-1.9449,-1.9451,-1.9454,-1.9422,0,0,0,0,0,-1.9614,-1.9606,-1.9581,-1.958,-1.9573,-1.9551,-1.9544,-1.953,-1.9514,-1.9507,-1.949,-1.9474,-1.9462,-1.9455,-1.9442,-1.9439,-1.9433,-1.9439,-1.9442,-1.9445,-1.9445,-1.9441,-1.9444,-1.9418,-1.9418,-1.9418,0,0,-1.9626,-1.9609,-1.9606,-1.9585,-1.9572,-1.9564,-1.9545,-1.9538,-1.9531,-1.9506,-1.9496,-1.9483,-1.9464,-1.9458,-1.9454,-1.9447,-1.9451,-1.9446,-1.9448,-1.9447,-1.9442,-1.9445,-1.9447,-1.9418,-1.9418,-1.9418,0,0,-1.9643,-1.963,-1.9628,-1.9615,-1.9596,-1.9581,-1.958,-1.9557,-1.9547,-1.9538,-1.9519,-1.951,-1.9491,-1.9477,-1.9468,-1.9481,-1.9466,-1.9477,-1.9491,-1.9488,-1.949,-1.9492,-1.9496,-1.9497,-1.9478,-1.9478,-1.9478,0,-1.966,-1.9648,-1.9628,-1.9621,-1.9612,-1.959,-1.9586,-1.9575,-1.9552,-1.9547,-1.9539,-1.9514,-1.95,-1.949,-1.9493,-1.9486,-1.9484,-1.948,-1.9492,-1.9493,-1.9494,-1.9498,-1.9499,-1.9479,-1.9479,-1.9479,-1.9479,0,-1.9669,-1.9661,-1.9661,-1.964,-1.9631,-1.9626,-1.9605,-1.9598,-1.9585,-1.9571,-1.9561,-1.9543,-1.9526,-1.9523,-1.951,-1.9511,-1.9508,-1.9497,-1.9483,-1.9499,-1.9501,-1.9502,-1.9481,-1.9481,-1.9481,-1.948,0,0,-1.9703,-1.9672,-1.9672,-1.9662,-1.9639,-1.9632,-1.9626,-1.961,-1.9605,-1.959,-1.9584,-1.9568,-1.9557,-1.9547,-1.9532,-1.953,-1.954,-1.9519,-1.9518,-1.9522,-1.9539,-1.9547,-1.9549,-1.953,-1.953,-1.9531,-1.954,0,-1.9716,-1.9704,-1.9686,-1.9679,-1.9671,-1.9649,-1.9644,-1.9629,-1.9615,-1.9605,-1.959,-1.9579,-1.9566,-1.956,-1.9556,-1.9539,-1.9543,-1.9538,-1.9523,-1.9523,-1.9528,-1.955,-1.9558,-1.9569,-1.9541,-1.9541,-1.9542,0,-1.973,-1.9717,-1.971,-1.9687,-1.9683,-1.9678,-1.9662,-1.9654,-1.9636,-1.9626,-1.9615,-1.9599,-1.959,-1.9579,-1.9567,-1.9564,-1.9557,-1.9548,-1.9547,-1.9544,-1.9532,-1.9547,-1.9571,-1.9573,-1.9543,-1.9543,-1.9543,0,-1.9754,-1.9735,-1.9728,-1.972,-1.9694,-1.9691,-1.968,-1.9662,-1.9654,-1.964,-1.9634,-1.9619,-1.9611,-1.9599,-1.9579,-1.9573,-1.9569,-1.9556,-1.9559,-1.956,-1.9559,-1.9559,-1.9581,-1.9556,-1.9555,-1.9555,-1.9555,0,-1.977,-1.9767,-1.9739,-1.9734,-1.9729,-1.9708,-1.9704,-1.969,-1.9675,-1.9667,-1.9647,-1.964,-1.9615,-1.9605,-1.959,-1.9581,-1.9577,-1.9569,-1.9564,-1.957,-1.9571,-1.9564,-1.9562,-1.9556,-1.9556,-1.9556,-1.9556,0,-1.9797,-1.9778,-1.9769,-1.9745,-1.9739,-1.9736,-1.9715,-1.971,-1.9695,-1.9686,-1.9682,-1.9659,-1.9646,-1.9625,-1.9606,-1.9595,-1.9589,-1.9583,-1.9595,-1.9593,-1.9597,-1.9596,-1.9615,-1.9616,-1.9591,-1.9591,-1.9591,0,-1.9808,-1.9805,-1.978,-1.9774,-1.9764,-1.9754,-1.9745,-1.9724,-1.9716,-1.9696,-1.9692,-1.9678,-1.9665,-1.9645,-1.9626,-1.9611,-1.9604,-1.9611,-1.9601,-1.9607,-1.9603,-1.9603,-1.9602,-1.9613,-1.9614,-1.9614,-1.9614,0,-1.983,-1.9821,-1.9809,-1.9795,-1.9785,-1.9773,-1.9759,-1.9755,-1.973,-1.9722,-1.9709,-1.9699,-1.968,-1.9665,-1.9648,-1.9635,-1.962,-1.9618,-1.9618,-1.9623,-1.963,-1.9625,-1.9601,-1.9617,-1.9617,-1.9617,-1.9617,-1.9617,-1.9848,-1.9844,-1.9826,-1.9814,-1.9802,-1.9789,-1.9783,-1.9768,-1.9756,-1.9739,-1.9727,-1.9715,-1.9696,-1.9671,-1.966,-1.9649,-1.9643,-1.9643,-1.9642,-1.9643,-1.9644,-1.9633,-1.9646,-1.9646,-1.9646,-1.9646,-1.9646,0,-1.9868,-1.9856,-1.9845,-1.9827,-1.9817,-1.9805,-1.9789,-1.9781,-1.9771,-1.9755,-1.9743,-1.9728,-1.9714,-1.9694,-1.9678,-1.9673,-1.9666,-1.9669,-1.9669,-1.9666,-1.9651,-1.9653,-1.9675,-1.9675,-1.9675,-1.9675,-1.9675,-1.9675,-1.9878,-1.987,-1.9858,-1.9844,-1.9831,-1.9819,-1.9811,-1.9799,-1.9787,-1.977,-1.9759,-1.9746,-1.9728,-1.9711,-1.9697,-1.9692,-1.9686,-1.9692,-1.9684,-1.967,-1.9668,-1.9665,-1.9666,-1.9691,-1.9691,-1.97,-1.97,-1.97]},{"header":{"parameterUnit":"m.s-1","parameterCategory":1,"la1":30.2991,"la2":30.254,"lo1":-89.0895,"lo2":-89.0444,"dy":0.0017,"dx":0.0017,"nx":28,"ny":28,"refTime":"2025-04-24T09:00:00:Z","depth":0,"parameterNumber":3,"parameterNumberName":"V-component_of_WINDS"},"data":[0,0,0,0,0,0,0,0,0,0,0,0,0,0,0,0,0,0,0,0,0,0,0,0,0,0,0,0,0,0,0,0,0,0,0,0,0,0,0,0,0,0,0,0,0,0,0,0,0,0,0,0,0,0,0,0,0,0,4.0729,4.0729,0,4.0688,4.0688,4.0687,4.064,4.0639,4.0639,4.0638,4.0592,4.0592,4.0591,0,0,0,0,0,0,0,0,0,0,0,0,0,4.0764,4.0764,4.0729,4.0729,4.0728,4.0688,4.0688,4.0687,4.064,4.0639,4.0639,4.0638,4.0592,4.0592,4.0591,0,0,0,0,0,0,0,0,0,0,0,0,0,4.0739,4.0764,4.0729,4.07,4.0697,4.0688,4.0688,4.0687,4.064,4.0639,4.0638,4.0637,4.0593,4.0592,4.0591,4.0607,0,0,4.0588,4.0588,0,0,0,0,0,0,0,0,4.074,4.0737,4.0705,4.0702,4.0699,4.0668,4.0683,4.066,4.0641,4.0662,4.0638,4.0637,4.0618,4.0615,4.061,4.0605,4.0603,4.0588,4.0588,4.0587,4.0587,0,0,0,0,0,0,0,4.0742,4.0739,4.0713,4.0704,4.0701,4.0688,4.0683,4.0679,4.0646,4.066,4.0656,4.0652,4.0616,4.0611,4.0608,4.0602,4.0588,4.0588,4.0587,4.0587,4.0608,4.0609,0,0,0,0,0,0,4.0749,4.0741,4.0714,4.0712,4.0717,4.0688,4.0683,4.0679,4.0646,4.064,4.0653,4.065,4.0613,4.0609,4.0606,4.0623,4.0587,4.0587,4.0586,4.0607,4.0609,4.061,0,0,0,0,0,0,4.075,4.0747,4.0716,4.0725,4.072,4.0689,4.0685,4.0679,4.0673,4.0641,4.0635,4.0654,4.0612,4.0608,4.0607,4.0621,4.0586,4.0585,4.0606,4.0608,4.0609,4.0656,0,0,0,0,0,0,4.0751,4.0747,4.0753,4.0726,4.072,4.0718,4.0686,4.0679,4.0672,4.0668,4.064,4.0634,4.061,4.0609,4.0607,4.0619,4.0585,4.0605,4.0607,4.0609,4.0653,4.0659,4.0664,0,0,0,0,0,4.0752,4.0767,4.0754,4.0751,4.0727,4.0719,4.0716,4.0689,4.0674,4.0679,4.0659,4.0635,4.062,4.0609,4.0606,4.0618,4.0604,4.0606,4.0609,4.065,4.0658,4.0664,0,0,0,0,0,0,4.0795,4.0763,4.0748,4.0754,4.074,4.0711,4.0717,4.0698,4.0686,4.0683,4.0649,4.0643,4.0647,4.0633,4.0622,4.0632,4.0608,4.061,4.0641,4.0648,4.0653,4.0656,4.0584,0,0,0,0,0,4.0806,4.0803,4.0775,4.0783,4.0777,4.0749,4.0744,4.0725,4.0709,4.0702,4.0681,4.0665,4.0657,4.0652,4.0642,4.0651,4.0644,4.0658,4.0664,4.0668,4.067,4.0674,4.068,4.0618,4.0618,4.0618,0,0,4.0827,4.0809,4.0809,4.0791,4.0778,4.0775,4.0744,4.0742,4.0739,4.0701,4.07,4.0685,4.0664,4.0669,4.067,4.0657,4.0686,4.0671,4.0675,4.0674,4.0677,4.0683,4.0688,4.062,4.0619,4.0619,0,0,4.0864,4.085,4.0856,4.0844,4.0825,4.0807,4.0808,4.0783,4.0772,4.0771,4.0742,4.0739,4.0725,4.0712,4.0703,4.0738,4.0715,4.0736,4.0763,4.0768,4.0773,4.0777,4.0789,4.0794,4.0738,4.0738,4.0738,0,4.0892,4.0887,4.0861,4.0862,4.0855,4.0822,4.0828,4.0817,4.0795,4.0791,4.0778,4.0761,4.0745,4.0746,4.0755,4.0749,4.075,4.0738,4.0774,4.0778,4.0782,4.0793,4.0797,4.074,4.074,4.074,4.0739,0,4.0923,4.092,4.0927,4.0909,4.0903,4.0906,4.088,4.0877,4.0859,4.0842,4.0842,4.0822,4.0808,4.0807,4.0789,4.0807,4.0799,4.0781,4.0756,4.0791,4.08,4.0804,4.0744,4.0743,4.0742,4.0742,0,0,4.0983,4.0953,4.0955,4.0947,4.0925,4.0922,4.0924,4.0912,4.091,4.0897,4.0897,4.0887,4.087,4.0861,4.0841,4.0846,4.0874,4.0826,4.0825,4.0835,4.0892,4.0905,4.0911,4.086,4.0861,4.0862,4.0894,0,4.1015,4.1017,4.0995,4.1002,4.1,4.097,4.0972,4.0958,4.0943,4.0937,4.092,4.0914,4.0892,4.0886,4.0889,4.087,4.0885,4.0868,4.0859,4.0859,4.0864,4.0916,4.093,4.0961,4.0897,4.0898,4.0898,0,4.1052,4.1043,4.1051,4.103,4.1028,4.103,4.1017,4.1013,4.0997,4.0986,4.0977,4.0956,4.0955,4.0933,4.0932,4.0921,4.0916,4.0907,4.0907,4.0904,4.088,4.0913,4.097,4.0974,4.0904,4.0904,4.0903,0,4.1095,4.1085,4.1088,4.1082,4.1057,4.1059,4.1049,4.1032,4.1027,4.1017,4.1013,4.1002,4.0996,4.0988,4.0964,4.095,4.0965,4.0941,4.0955,4.0956,4.0958,4.0958,4.1014,4.0957,4.0957,4.0957,4.0957,0,4.1133,4.1138,4.1107,4.1109,4.1115,4.109,4.1096,4.1082,4.1068,4.1067,4.104,4.1039,4.1009,4.1004,4.0986,4.0988,4.0985,4.0975,4.097,4.0977,4.0978,4.0972,4.0969,4.0958,4.0958,4.0958,4.0958,0,4.1181,4.116,4.1162,4.1139,4.1134,4.1139,4.1119,4.112,4.1104,4.1102,4.1101,4.1075,4.1069,4.1045,4.1032,4.102,4.1027,4.1018,4.1033,4.1029,4.1044,4.1043,4.1097,4.1103,4.1044,4.1044,4.1045,0,4.1205,4.1209,4.1188,4.1186,4.1177,4.1173,4.1169,4.1144,4.114,4.1123,4.1126,4.1118,4.111,4.1101,4.1081,4.1071,4.106,4.108,4.1059,4.1066,4.106,4.106,4.106,4.1084,4.1085,4.1086,4.1086,0,4.1251,4.1241,4.1236,4.1227,4.1223,4.1214,4.1204,4.1204,4.1177,4.1173,4.1167,4.1161,4.115,4.1142,4.1129,4.1118,4.1097,4.1094,4.1096,4.1103,4.1111,4.1106,4.1044,4.1092,4.1091,4.1091,4.1091,4.109,4.1287,4.129,4.1275,4.127,4.1261,4.1253,4.1253,4.1238,4.1233,4.1222,4.1208,4.1204,4.1188,4.117,4.116,4.1156,4.1145,4.1149,4.1149,4.115,4.1154,4.1113,4.1154,4.1154,4.1154,4.1153,4.1153,0,4.1331,4.1321,4.1317,4.1305,4.1301,4.1285,4.1273,4.1271,4.1268,4.1256,4.125,4.1243,4.1236,4.1216,4.1207,4.1208,4.1198,4.1206,4.1205,4.1203,4.1165,4.1163,4.1214,4.1214,4.1214,4.1214,4.1214,4.1214,4.1353,4.1357,4.1346,4.1344,4.1334,4.133,4.1325,4.1318,4.1308,4.1303,4.1297,4.1285,4.127,4.126,4.1253,4.1247,4.1244,4.1255,4.1246,4.1211,4.1205,4.12,4.1198,4.1255,4.1255,4.1285,4.1285,4.1285]}]]